DELTA 1 DEB, 21336

Orbit data source: Space-Track

DELTA 1 DEB, 21336 is space debris in SSO originally from a launch on Thu, 12 Jun 1975 UTC launched from the Air Force Western Test Range (AFWTR). Debris objects in space refer to the collection of defunct objects orbiting the Earth. Examples of debris include non-operational satellites, rocket bodies, and fragments generated from explosions, collisions, or faulty payload assembly.

Loading next visibility...
Identifier
21336, 1975-052BE
Orbit
SSO
Country
Flag of USUS
Related business
Manufacturer
Unknown
Mission
Spacecraft
Bus & Motor
Unknown
Mass
Unknown
Launch date (UTC)
1975-06-12 (51 years ago)
Launch vehicle
Unknown
Launch site
Air Force Western Test Range (AFWTR)
Object type
Payload
Rocket body
Debris
Shape & HBR
Unknown shape, 0.1 m
Radar Cross Section
Small (<0.1 m²)

Expand to show TLE details & history
Last TLE update: 1 day ago

TLE from 1 day ago
0 DELTA 1 DEB
1 21336U 75052BE  25350.67287168 -.00003096  00000-0 -54082-2 0  9995
2 21336  99.2053 257.1804 0175964 329.9530  92.6195 13.36707773666717
Epoch: 2025-12-16T16:08Z
TLE epoch observation values (Epoch: 2025-12-16T16:08:56.113Z)
Latitude
63.16171°
Longitude
-89.18897°
Altitude
1,140.703 km
Speed
7.284 km/s
True Right ascension
15h 54m 23s
True Declination
63° 01' 48"
Sunlit
Object was in daylight at epoch
Visualization orbit readout
Latitude
Unknown
Longitude
Unknown
Altitude
Unknown
Speed
Unknown
Apparent Right ascension
Unknown
Apparent Declination
Unknown
Sunlit
N/A
Visualization observer readout
Local Sidereal Time
14:52:17
Azimuth
Unknown
Elevation
Unknown
Doppler factor
Unknown
Orbital elements
Apogee altitude
1,250.782 km
Perigee altitude
986.941 km
Semi-major axis
7,496.998 km
Eccentricity
0.0176
Inclination
99.2053°
RAAN
257.1804°
Arg. of periapsis
329.953°
True anomaly
94.63136°
Mean anomaly
92.6195°
Eccentric anomaly
93.62568°
Mean motion
3.34358 °/min
Orbital period
107.67 mins
BSTAR
-0.0054082
Loading maneuver chart data...
Computing Atmospheric mass density...
Loading historical data...
Loading historical data...
Loading historical data...
Loading historical data...
Loading historical data...
Loading historical data...
Loading historical data...

Documentation

Showing up to 5 results
|